Regional Weather Roundup
Issued by NWS Albany, NY

Home | Current Version | Previous Version | Text Only | Print | Product List | Glossary On
Versions: 1 2 3 4 5 6 7 8 9 10 11 12 13 14 15 16 17 18 19 20 21 22 23 24 25 26 27 28 29 30 31 32 33 34 35 36 37 38 39 40 41 42 43 44 45 46 47 48 49
000
ASUS41 KALY 052010
RWRALY

NEW YORK STATE HOURLY WEATHER ROUNDUP
NATIONAL WEATHER SERVICE ALBANY NY
400 PM EDT SUN JUL 05 2015

NOTE: "FAIR" INDICATES FEW OR NO CLOUDS BELOW 12,000 FEET WITH NO
SIGNIFICANT WEATHER AND/OR NO OBSTRUCTIONS TO VISIBILITY.

NYZ032-033-038>043-046>054-057>066-NYZ062>081-052100-
EAST


CITY           SKY/WX    TMP DP  RH WIND       PRES   REMARKS
ALBANY         MOSUNNY   83  56  39 W8        30.09F
GLENS FALLS    CLOUDY    79  64  60 SE7       30.08S
POUGHKEEPSIE   SUNNY     82  60  47 CALM      30.09F
NEWBURGH       MOSUNNY   81  63  54 W5        30.12F
MONTGOMERY     SUNNY     82  64  54 SW6       30.10F
WHITE PLAINS   MOSUNNY   82  58  43 NW6       30.11S
ISLIP          PTSUNNY   79  63  57 SW13      30.10S
NEW YORK CITY  PTSUNNY   84  58  40 W6        30.09F
CENTRAL PARK   SUNNY     83  59  44 CALM      30.13S
$$

NYZ005>009-017-018-044>046-055-056-052100-
CENTRAL


CITY           SKY/WX    TMP DP  RH WIND       PRES   REMARKS
FULTON         SUNNY     76  60  57 VRB6      30.13F
SYRACUSE       MOSUNNY   80  60  50 NW10      30.12S
ROME           MOSUNNY   79  60  52 SW8       30.12F
ELMIRA         PTSUNNY   80  58  46 CALM      30.12F
BINGHAMTON     MOSUNNY   76  58  53 VRB6      30.16F
MONTICELLO     SUNNY     79  57  47 W6        30.16S
$$

NYZ026>034-041>043-052100-
NORTH


CITY           SKY/WX    TMP DP  RH WIND       PRES   REMARKS
WATERTOWN      SUNNY     74  61  63 W10       30.11F
FORT DRUM      NOT AVBL
MASSENA        MOSUNNY   80  59  48 W9        30.08F
SARANAC LAKE   MOSUNNY   75  53  46 W9        30.11F
PLATTSBURGH    MOSUNNY   75  61  61 SE6       30.06F
$$

NYZ001>004-010>016-019>021-052100-
WEST


CITY           SKY/WX    TMP DP  RH WIND       PRES   REMARKS
NIAGARA FALLS  MOSUNNY   79  59  50 SW12      30.12S
BUFFALO        MOSUNNY   79  55  43 SW7       30.13S
DUNKIRK        MOSUNNY   75  56  51 N3        30.14F
JAMESTOWN      MOSUNNY   75  55  50 NE5       30.18S
WELLSVILLE     SUNNY     78  48  34 VRB5      30.20F
ROCHESTER      MOSUNNY   80  59  48 NE5       30.13S
PENN YAN       MOSUNNY   80  58  46 VRB6      30.15S
$$

             KEY
       WCI = WIND CHILL INDEX
       VSB = VISIBILITY
       HX  = HEAT INDEX
$$


USA.gov is the U.S. government's official web portal to all federal, state and local government web resources and services.